Track STARLINK-80 now! 10-day predictions STARLINK-80 is classified as:
1 44282U 19029AZ 21105.60433519 .00014137 00000-0 48612-3 0 9991 2 44282 53.0212 211.4643 0004829 87.3066 272.8486 15.30352991105785